Location: Coffee Ditch
(40.9640°N, 122.7500°W)
Time: 06:32:30
(UTC+00:00)

USA 215 - Pass Details

Date: 08 September 2024
Orbit: 1099 x 1108 km, 123.0° (Epoch: 25 September)

Event Time Altitude Azimuth Distance (km) Brightness Sun altitude
Rises 13:00:42 0° 142° (SE) 3,902 6.5 -9.1°
Reaches altitude 10° 13:03:12 10° 145° (SE) 2,947 5.8 -8.6°
Maximum altitude 13:09:39 64° 226° (SW) 1,203 3.3 -7.4°
Drops below altitude 10° 13:16:08 10° 308° (NW) 2,959 5.2 -6.3°
Sets 13:18:39 0° 311° (NW) 3,919 5.8 -5.8°
